Location: Unspecified
(0.0000°N, 0.0000°E)
Time: 16:20:47
(UTC-05:00)

ISS - Visible Passes

Search period start: 18 June 2018 00:00
Search period end: 28 June 2018 00:00
Orbit: 402 x 406 km, 51.6° (Epoch: 19 June)

Date Brightness Start Highest point End Pass type
(mag) Time Alt. Az. Time Alt. Az. Time Alt. Az.
18 Jun -3.2 13:32:35 10° NNW 13:35:39 40° NE 13:38:34 11° SE visible
19 Jun -1.2 14:17:41 10° W 14:19:41 15° SW 14:21:42 10° SSW visible
20 Jun -2.7 13:24:21 10° NW 13:27:26 40° SW 13:30:31 10° SSE visible
22 Jun -2.4 00:06:04 10° SSW 00:09:06 34° SE 00:12:06 10° ENE visible
22 Jun -1.1 23:16:28 13° SE 23:16:48 13° SE 23:18:31 10° E visible
23 Jun -3.5 23:59:32 30° WSW 00:00:47 48° NW 00:03:56 10° NNE visible
24 Jun -1.8 23:09:51 29° ENE 23:09:51 29° ENE 23:11:40 10° NE visible
25 Jun -1.5 23:52:47 13° NW 23:52:47 13° NW 23:54:01 10° NNW visible
26 Jun -0.7 23:02:57 11° N 23:02:57 11° N 23:03:05 10° NNE visible
